{"data":{"norad_id":49219,"intl_designator":"2021-083AK","name":"ONEWEB-0357","alt_names":[],"object_type":"PAYLOAD","status":"ACTIVE","operator":null,"country":"UK","launch_date":"2021-09-14","launch_site_code":"TYMSC","launch_vehicle":null,"mission":null,"orbit_class":"UNKNOWN","rcs_meters":null,"size_class":null,"mass_kg":null,"dimensions":null,"purposes":["comms"],"wikipedia_slug":null,"has_3d_model":false,"image_url":null,"decayed_at":null,"tle_current":{"epoch":"2026-05-25T02:24:24.416640Z","epoch_age_seconds":73137,"freshness":"FRESH","line1":"1 49219U 21083AK  26145.10028260  .00000046  00000+0  81304-4 0  9995","line2":"2 49219  87.9176 279.0353 0001691 100.7491 259.3833 13.20772093233761","mean_motion":13.20772093,"eccentricity":0.0001691,"inclination_deg":87.9176,"raan_deg":279.0353,"arg_perigee_deg":100.7491,"mean_anomaly_deg":259.3833,"bstar":8.1304e-5,"rev_number":23376,"period_min":109.02713705354,"perigee_km":1180.4939233615,"apogee_km":1183.0506846882,"semimajor_km":7559.9093040249,"source":"CELESTRAK","updated_at":"2026-05-25T13:38:22.518788Z"}}}